{"data":{"norad_id":67734,"epoch":"2026-09-19T09:45:49.872672Z","epoch_age_seconds":160877,"freshness":"FRESH","line1":"1 67734U 26026P   26262.40682723  .00016245  00000+0  50442-3 0  9998","line2":"2 67734  97.2868 314.2600 0000603 263.2518  96.8656 15.33446478 33811","mean_motion":15.33446478,"eccentricity":6.03e-5,"inclination_deg":97.2868,"raan_deg":314.26,"arg_perigee_deg":263.2518,"mean_anomaly_deg":96.8656,"bstar":0.00050442,"rev_number":3381,"period_min":93.906114146098,"perigee_km":465.12610334417,"apogee_km":465.95145064288,"semimajor_km":6843.6757769935,"source":"CELESTRAK","updated_at":"2026-09-20T09:00:43.659140Z"}}